Naples, FL

5:29 PM EDT on July 20, 2017 (GMT -0400)
Naples Municipal

Weather History for KAPF - February, 2014

Change the Weather History Date:

Thursday, February 6, 2014

  Actual Average Record
Temperature  
Mean Temperature 76 °F 66 °F  
Max Temperature 81 °F 76 °F 86 °F (1982)
Min Temperature 70 °F 56 °F 33 °F (1966)
Degree Days  
Heating Degree Days 0 2  
Month to date heating degree days 0 12  
Since 1 July heating degree days 125 192  
Cooling Degree Days 11 3  
Month to date cooling degree days 69 17  
Year to date cooling degree days 160 103  
Growing Degree Days 24 (Base 50)    
Moisture  
Dew Point 71 °F    
Average Humidity 87    
Maximum Humidity 100    
Minimum Humidity 74    
Precipitation  
Precipitation 0.00 in 0.06 in 0.35 in (1992)
Month to date precipitation 0.00 0.43  
Year to date precipitation 2.39 2.28  
Snow  
Snow 0.00 in - - ()
Month to date snowfall 0.0  
Since 1 July snowfall 0.0  
Snow Depth 0.00 in    
Sea Level Pressure  
Sea Level Pressure 30.07 in    
Wind  
Wind Speed 3 mph (NW)    
Max Wind Speed 10 mph    
Max Gust Speed 14 mph    
Visibility 4 miles    
Events Fog    
T = Trace of Precipitation, MM = Missing Value Source: NWS Daily Summary

Daily Weather History Graph

Daily Weather History Graph

Search for Another Location

Airport or City:

Trip Planner

Search our weather history database for the weather conditions in past years. The results will help you decide how hot, cold, wet, or windy it might be!

Date:

Astronomy

Feb. 06, 2014 Rise Set
Actual Time 7:08 AM EST 6:14 PM EST
Civil Twilight 6:44 AM EST 6:37 PM EST
Nautical Twilight 6:17 AM EST 7:05 PM EST
Astronomical Twilight 5:50 AM EST 7:32 PM EST
Moon 11:46 AM EST (2/6) 12:23 AM EST (2/6)
Length of Visible Light 11h 53m
Length of Day
11h 05m
Waxing Crescent, 49% of the Moon is Illuminated
Feb 6
Waxing Crescent
Feb 6
First Quarter
Feb 14
Full
Feb 22
Last Quarter
Mar 1
New

Hourly Weather History & Observations

Time (EST) Temp. Heat Index Dew Point Humidity Pressure Visibility Wind Dir Wind Speed Gust Speed Precip Events Conditions
12:08 AM 73.4 °F - 71.6 °F 94% 30.06 in 0.5 mi Calm Calm - N/A Fog Fog
12:17 AM 73.4 °F - 71.6 °F 94% 30.06 in 0.2 mi Calm Calm - N/A Fog Fog
12:41 AM 73.4 °F - 73.4 °F 100% 30.06 in 0.2 mi Calm Calm - N/A Fog Fog
12:53 AM 73.0 °F - 73.0 °F 100% 30.06 in 0.2 mi Calm Calm - N/A Fog Fog
1:15 AM 71.6 °F - 71.6 °F 100% 30.06 in 0.2 mi SE 3.5 mph - N/A Fog Fog
1:32 AM 73.4 °F - 73.4 °F 100% 30.06 in 0.5 mi Calm Calm - N/A Fog Fog
1:40 AM 73.4 °F - 73.4 °F 100% 30.06 in 1.0 mi Calm Calm - N/A   Mist
1:51 AM 73.4 °F - 73.4 °F 100% 30.06 in 2.5 mi Calm Calm - N/A   Overcast
1:53 AM 73.0 °F - 73.0 °F 100% 30.06 in 2.5 mi Calm Calm - N/A   Overcast
2:00 AM 73.4 °F - 73.4 °F 100% 30.06 in 2.5 mi Calm Calm - N/A   Overcast
2:23 AM 71.6 °F - 71.6 °F 100% 30.05 in 3.0 mi Calm Calm - N/A   Overcast
2:44 AM 71.6 °F - 71.6 °F 100% 30.04 in 4.0 mi Calm Calm - N/A   Scattered Clouds
2:53 AM 72.0 °F - 71.1 °F 97% 30.04 in 4.0 mi Calm Calm - N/A   Clear
3:14 AM 69.8 °F - 69.8 °F 100% 30.04 in 1.5 mi Calm Calm - N/A   Scattered Clouds
3:17 AM 69.8 °F - 69.8 °F 100% 30.04 in 0.8 mi Calm Calm - N/A   Mist
3:31 AM 71.6 °F - 71.6 °F 100% 30.04 in 2.0 mi Calm Calm - N/A   Overcast
3:34 AM 71.6 °F - 71.6 °F 100% 30.04 in 1.0 mi Calm Calm - N/A   Overcast
3:36 AM 71.6 °F - 71.6 °F 100% 30.04 in 0.5 mi Calm Calm - N/A Fog Fog
3:42 AM 69.8 °F - 69.8 °F 100% 30.04 in 0.2 mi Calm Calm - N/A Fog Fog
3:53 AM 72.0 °F - 71.1 °F 97% 30.04 in 0.5 mi Calm Calm - N/A Fog Fog
4:00 AM 71.6 °F - 71.6 °F 100% 30.05 in 0.2 mi Calm Calm - N/A Fog Fog
4:08 AM 71.6 °F - 71.6 °F 100% 30.05 in 0.2 mi Calm Calm - N/A Fog Fog
4:53 AM 71.1 °F - 71.1 °F 100% 30.05 in 0.2 mi North 3.5 mph - N/A Fog Fog
5:53 AM 71.1 °F - 71.1 °F 100% 30.06 in 0.2 mi Calm Calm - N/A Fog Fog
6:20 AM 71.6 °F - 71.6 °F 100% 30.07 in 0.2 mi Calm Calm - N/A Fog Fog
6:53 AM 71.1 °F - 71.1 °F 100% 30.08 in 0.2 mi NNE 3.5 mph - N/A Fog Fog
7:53 AM 71.1 °F - 71.1 °F 100% 30.09 in 0.2 mi Calm Calm - N/A Fog Fog
8:34 AM 71.6 °F - 71.6 °F 100% 30.09 in 0.5 mi Calm Calm - N/A Fog Fog
8:40 AM 71.6 °F - 71.6 °F 100% 30.09 in 1.0 mi Calm Calm - N/A   Overcast
8:53 AM 71.1 °F - 71.1 °F 100% 30.10 in 1.5 mi Calm Calm - N/A   Overcast
9:26 AM 71.6 °F - 71.6 °F 100% 30.11 in 5.0 mi East 4.6 mph - N/A   Overcast
9:33 AM 71.6 °F - 71.6 °F 100% 30.11 in 5.0 mi ENE 4.6 mph - N/A   Overcast
9:51 AM 73.4 °F - 71.6 °F 94% 30.12 in 5.0 mi ENE 3.5 mph - N/A   Mostly Cloudy
9:53 AM 73.9 °F - 73.0 °F 97% 30.12 in 5.0 mi East 4.6 mph - N/A   Mostly Cloudy
10:53 AM 77.0 °F - 71.1 °F 82% 30.12 in 10.0 mi ESE 3.5 mph - N/A   Mostly Cloudy
11:53 AM 79.0 °F - 70.0 °F 74% 30.10 in 10.0 mi Calm Calm - N/A   Mostly Cloudy
12:41 PM 78.8 °F - 71.6 °F 78% 30.08 in 9.0 mi WNW 5.8 mph - N/A   Mostly Cloudy
12:53 PM 80.1 °F 83.6 °F 71.1 °F 74% 30.08 in 9.0 mi WSW 6.9 mph - N/A   Partly Cloudy
1:53 PM 80.1 °F 83.6 °F 71.1 °F 74% 30.04 in 10.0 mi SW 5.8 mph - N/A   Scattered Clouds
2:53 PM 79.0 °F - 71.1 °F 77% 30.02 in 10.0 mi West 8.1 mph - N/A   Scattered Clouds
3:53 PM 79.0 °F - 69.1 °F 72% 30.02 in 10.0 mi SW 9.2 mph - N/A   Scattered Clouds
4:53 PM 77.0 °F - 71.1 °F 82% 30.03 in 10.0 mi SW 6.9 mph - N/A   Scattered Clouds
5:53 PM 75.0 °F - 71.1 °F 87% 30.04 in 9.0 mi West 3.5 mph - N/A   Clear
6:53 PM 73.0 °F - 71.1 °F 93% 30.05 in 9.0 mi NNW 4.6 mph - N/A   Clear
7:53 PM 73.0 °F - 71.1 °F 93% 30.07 in 9.0 mi WNW 6.9 mph - N/A   Overcast
8:53 PM 73.0 °F - 70.0 °F 90% 30.08 in 9.0 mi Calm Calm - N/A   Mostly Cloudy
9:51 PM 71.6 °F - 69.8 °F 94% 30.10 in 8.0 mi NNW 3.5 mph - N/A   Overcast
9:53 PM 72.0 °F - 70.0 °F 93% 30.09 in 8.0 mi NW 3.5 mph - N/A   Overcast
10:31 PM 71.6 °F - 69.8 °F 94% 30.11 in 5.0 mi NW 6.9 mph - N/A   Overcast
10:53 PM 71.1 °F - 70.0 °F 96% 30.10 in 7.0 mi NNW 3.5 mph - N/A   Overcast
11:01 PM 71.6 °F - 69.8 °F 94% 30.10 in 8.0 mi NNW 3.5 mph - N/A   Overcast
11:09 PM 71.6 °F - 69.8 °F 94% 30.10 in 8.0 mi NW 4.6 mph - N/A   Overcast
11:18 PM 71.6 °F - 69.8 °F 94% 30.10 in 7.0 mi NNW 3.5 mph - N/A   Overcast
11:53 PM 71.1 °F - 70.0 °F 96% 30.09 in 7.0 mi NNW 3.5 mph - N/A   Overcast